TimePDT,TemperatureF,Dew PointF,Humidity,Sea Level PressureIn,VisibilityMPH,Wind Direction,Wind SpeedMPH,Gust SpeedMPH,PrecipitationIn,Events,Conditions,WindDirDegrees,DateUTC
12:15 AM,59.0,30.2,34,30.31,10.0,NNW,4.6,-,N/A,,Clear,330,2012-09-30 07:15:00
12:35 AM,55.4,28.4,36,30.31,10.0,NNW,6.9,-,N/A,,Clear,340,2012-09-30 07:35:00
12:55 AM,55.4,28.4,36,30.31,10.0,NNW,6.9,-,N/A,,Clear,340,2012-09-30 07:55:00
1:15 AM,55.4,28.4,36,30.31,10.0,NNW,6.9,-,N/A,,Clear,330,2012-09-30 08:15:00
1:35 AM,55.4,26.6,33,30.32,10.0,NNE,5.8,-,N/A,,Clear,20,2012-09-30 08:35:00
1:55 AM,55.4,28.4,36,30.32,10.0,North,3.5,-,N/A,,Clear,360,2012-09-30 08:55:00
2:15 AM,53.6,26.6,35,30.31,10.0,NNW,6.9,-,N/A,,Clear,340,2012-09-30 09:15:00
2:35 AM,51.8,26.6,38,30.31,10.0,Calm,Calm,-,N/A,,Clear,0,2012-09-30 09:35:00
2:55 AM,48.2,24.8,40,30.32,10.0,Calm,Calm,-,N/A,,Clear,0,2012-09-30 09:55:00
3:15 AM,48.2,24.8,40,30.32,10.0,East,3.5,-,N/A,,Clear,80,2012-09-30 10:15:00
3:35 AM,46.4,23.0,40,30.32,10.0,West,3.5,-,N/A,,Clear,280,2012-09-30 10:35:00
3:55 AM,46.4,23.0,40,30.32,10.0,NNW,3.5,-,N/A,,Clear,330,2012-09-30 10:55:00
4:15 AM,46.4,24.8,43,30.32,10.0,NNW,4.6,-,N/A,,Clear,340,2012-09-30 11:15:00
4:35 AM,46.4,24.8,43,30.31,10.0,North,3.5,-,N/A,,Clear,350,2012-09-30 11:35:00
4:55 AM,48.2,24.8,40,30.32,10.0,NNW,5.8,-,N/A,,Clear,330,2012-09-30 11:55:00
5:15 AM,50.0,26.6,40,30.32,10.0,Calm,Calm,-,N/A,,Clear,0,2012-09-30 12:15:00
5:35 AM,48.2,24.8,40,30.32,10.0,Calm,Calm,-,N/A,,Clear,0,2012-09-30 12:35:00
5:55 AM,48.2,26.6,43,30.32,10.0,Calm,Calm,-,N/A,,Clear,0,2012-09-30 12:55:00
6:15 AM,42.8,23.0,46,30.33,10.0,NW,4.6,-,N/A,,Clear,320,2012-09-30 13:15:00
6:35 AM,46.4,24.8,43,30.33,10.0,North,4.6,-,N/A,,Clear,350,2012-09-30 13:35:00
6:55 AM,44.6,23.0,43,30.34,9.0,NNW,4.6,-,N/A,,Clear,340,2012-09-30 13:55:00
7:15 AM,42.8,23.0,46,30.35,10.0,NNE,3.5,-,N/A,,Clear,20,2012-09-30 14:15:00
7:35 AM,48.2,24.8,40,30.35,10.0,Calm,Calm,-,N/A,,Clear,0,2012-09-30 14:35:00
7:55 AM,48.2,24.8,40,30.36,8.0,Calm,Calm,-,N/A,,Clear,0,2012-09-30 14:55:00
8:15 AM,53.6,26.6,35,30.36,10.0,Calm,Calm,-,N/A,,Clear,0,2012-09-30 15:15:00
8:35 AM,55.4,28.4,36,30.36,10.0,Calm,Calm,-,N/A,,Clear,0,2012-09-30 15:35:00
8:55 AM,57.2,28.4,33,30.36,10.0,WSW,3.5,-,N/A,,Clear,240,2012-09-30 15:55:00
9:35 AM,64.4,30.2,28,30.36,8.0,Calm,Calm,-,N/A,,Clear,0,2012-09-30 16:35:00
9:55 AM,66.2,30.2,26,30.36,10.0,SSE,3.5,-,N/A,,Clear,160,2012-09-30 16:55:00
10:15 AM,68.0,32.0,26,30.36,10.0,SE,3.5,-,N/A,,Clear,130,2012-09-30 17:15:00
10:35 AM,71.6,32.0,23,30.36,9.0,SE,5.8,-,N/A,,Clear,140,2012-09-30 17:35:00
10:55 AM,73.4,30.2,20,30.36,10.0,ESE,3.5,-,N/A,,Clear,120,2012-09-30 17:55:00
11:15 AM,75.2,30.2,19,30.36,10.0,ESE,4.6,-,N/A,,Clear,120,2012-09-30 18:15:00
11:35 AM,77.0,28.4,17,30.36,10.0,ESE,5.8,-,N/A,,Clear,120,2012-09-30 18:35:00
11:55 AM,77.0,28.4,17,30.35,10.0,South,3.5,-,N/A,,Clear,190,2012-09-30 18:55:00
12:15 PM,77.0,26.6,16,30.35,10.0,SE,3.5,-,N/A,,Clear,140,2012-09-30 19:15:00
12:35 PM,78.8,26.6,15,30.35,10.0,ESE,8.1,-,N/A,,Clear,110,2012-09-30 19:35:00
1:15 PM,80.6,26.6,14,30.33,10.0,SSW,9.2,-,N/A,,Clear,200,2012-09-30 20:15:00
1:35 PM,82.4,26.6,13,30.32,10.0,WSW,4.6,-,N/A,,Clear,250,2012-09-30 20:35:00
1:55 PM,82.4,24.8,12,30.32,10.0,South,4.6,-,N/A,,Clear,190,2012-09-30 20:55:00
2:15 PM,82.4,24.8,12,30.31,10.0,SSW,6.9,-,N/A,,Clear,210,2012-09-30 21:15:00
2:35 PM,82.4,24.8,12,30.30,10.0,SW,4.6,-,N/A,,Clear,230,2012-09-30 21:35:00
2:55 PM,84.2,24.8,11,30.30,10.0,SSE,6.9,-,N/A,,Clear,150,2012-09-30 21:55:00
3:15 PM,82.4,23.0,11,30.29,10.0,East,4.6,-,N/A,,Clear,80,2012-09-30 22:15:00
3:35 PM,82.4,23.0,11,30.29,10.0,SE,5.8,-,N/A,,Clear,130,2012-09-30 22:35:00
3:55 PM,82.4,23.0,11,30.28,10.0,Calm,Calm,-,N/A,,Clear,0,2012-09-30 22:55:00
4:15 PM,82.4,23.0,11,30.28,10.0,NE,3.5,-,N/A,,Clear,50,2012-09-30 23:15:00
4:35 PM,82.4,23.0,11,30.27,10.0,Calm,Calm,-,N/A,,Clear,0,2012-09-30 23:35:00
4:55 PM,82.4,21.2,10,30.27,10.0,East,8.1,-,N/A,,Clear,100,2012-09-30 23:55:00
5:15 PM,82.4,21.2,10,30.27,10.0,Calm,Calm,-,N/A,,Clear,0,2012-10-01 00:15:00
5:35 PM,82.4,21.2,10,30.27,10.0,Calm,Calm,-,N/A,,Clear,0,2012-10-01 00:35:00
5:55 PM,82.4,17.6,9,30.27,10.0,East,6.9,-,N/A,,Clear,90,2012-10-01 00:55:00
6:15 PM,80.6,19.4,10,30.27,10.0,NE,10.4,-,N/A,,Clear,50,2012-10-01 01:15:00
6:35 PM,77.0,19.4,12,30.27,10.0,NE,9.2,-,N/A,,Clear,50,2012-10-01 01:35:00
6:55 PM,75.2,19.4,12,30.27,10.0,ENE,10.4,-,N/A,,Clear,60,2012-10-01 01:55:00
7:15 PM,73.4,19.4,13,30.28,10.0,ENE,8.1,-,N/A,,Clear,60,2012-10-01 02:15:00
7:35 PM,71.6,21.2,15,30.29,10.0,WSW,8.1,-,N/A,,Clear,250,2012-10-01 02:35:00
8:15 PM,68.0,19.4,16,30.31,10.0,West,3.5,-,N/A,,Clear,280,2012-10-01 03:15:00
8:35 PM,68.0,19.4,16,30.31,10.0,Calm,Calm,-,N/A,,Clear,0,2012-10-01 03:35:00
9:15 PM,62.6,15.8,16,30.32,10.0,NNW,3.5,-,N/A,,Clear,330,2012-10-01 04:15:00
9:35 PM,62.6,17.6,18,30.32,10.0,North,5.8,-,N/A,,Clear,360,2012-10-01 04:35:00
9:55 PM,57.2,15.8,20,30.32,10.0,North,5.8,-,N/A,,Clear,350,2012-10-01 04:55:00
10:15 PM,60.8,17.6,19,30.32,10.0,North,5.8,-,N/A,,Clear,350,2012-10-01 05:15:00
10:35 PM,59.0,17.6,20,30.32,10.0,NW,3.5,-,N/A,,Clear,320,2012-10-01 05:35:00
11:15 PM,53.6,15.8,22,30.32,10.0,NNW,5.8,-,N/A,,Clear,330,2012-10-01 06:15:00
11:35 PM,55.4,15.8,21,30.32,10.0,NW,4.6,-,N/A,,Clear,310,2012-10-01 06:35:00